Satellite: ORSTED
Catalog number: 25635
Epoch time:      103056.52271467
Element set:     840 
Inclination:       96.4523 deg
RA of node:        41.0915 deg
Eccentricity:    0.0144512
Arg of perigee:   307.6205 deg
Mean anomaly:      51.1946 deg
Mean motion:   14.44856655 rev/day
Decay rate:    6.9900E-006 rev/day^2
Epoch rev:           21094
Checksum:              297

Satellite: SUNSAT
Catalog number: 25636
Epoch time:      103055.95810477
Element set:     683 
Inclination:       96.4541 deg
RA of node:        39.3055 deg
Eccentricity:    0.0148326
Arg of perigee:   315.9137 deg
Mean anomaly:      43.0308 deg
Mean motion:   14.42962998 rev/day
Decay rate:    3.9500E-006 rev/day^2
Epoch rev:           21073
Checksum:              315

Satellite: UOSAT 12
Catalog number: 25693
Epoch time:      103057.Element set:     738 
Inclination:       64.5608 deg
RA of node:       347.2072 deg
Eccentricity:    0.0020877
Arg of perigee:   315.3949 deg
Mean anomaly:      44.5473 deg
Mean motion:   14.76396225 rev/day
Decay rate:   -2.3999E-007 rev/day^2
Epoch rev:           20739
Checksum:              342

Satellite: FENGYUN 1C
Catalog number: 25730
Epoch time:      103056.52792457
Element set:     775 
Inclination:       98.6339 deg
RA of node:        80.6662 deg
Eccentricity:    0.0014334
Arg of perigee:   346.6121 deg
Mean anomaly:      13.4673 deg
Mean motion:   14.11735044 rev/day
Decay rate:    3.1999E-007 rev/day^2
Epoch rev:           19561
Checksum:              318

Satellite: ASTRA 1H
Catalog number: 25785
Epoch time:      103049.00000000
Element set:     372 
Inclination:        0.0122 deg
RA of node:       319.8851 deg
Eccentricity:    0.0002995
Arg of perigee:    65.1991 deg
Mean anomaly:     141.6651 deg
Mean motion:    1.00273184 rev/day
Decay rate:    1.1600E-006 rev/day^2
Epoch rev:            1349
Checksum:              242

Satellite: TERRA
Catalog number: 25994
Epoch time:      103057.27828745
Element set:     732 
Inclination:       98.1930 deg
RA of node:       133.3759 deg
Eccentricity:    0.0000859
Arg of perigee:    85.8778 deg
Mean anomaly:     274Mean motion:   14.57138413 rev/day
Decay rate:    1.9599E-006 rev/day^2
Epoch rev:           16979
Checksum:              376

Satellite: JAWSAT
Catalog number: 26061
Epoch time:      103057.23367518
Element set:     774 
Inclination:      100.2032 deg
RA of node:       115.7231 deg
Eccentricity:    0.0034736
Arg of perigee:   257.3434 deg
Mean anomaly:     102.3861 deg
Mean motion:   14.37833470 rev/day
Decay rate:    4.0099E-006 rev/day^2
Epoch rev:           16163
Checksum:              276

Satellite: OPAL
Catalog number: 26063
Epoch time:      103056.17683122
Element set:     728 
Inclination:      100.2060 deg
RA of node:       111.9519 deg
Eccentricity:    0.0036735
Arg of perigee:   268.5295 deg
Mean anomaly:      91.1670 deg
Mean motion:   14.35484288 rev/day
Decay rate:    1.2399E-006 rev/day^2
Epoch rev:           16133
Checksum:              298

Satellite: ASUSAT
Catalog number: 26065
Epoch time:      103056.90026944
Element set:     742 
Inclination:      100.2101 deg
RA of node:       112.9602 deg
Eccentricity:    0.0036892
Arg of perigee:   267.1542 deg
Mean anomaly:      92.5416 deg
Mean motion:   14.35512247 rev/day
Decay rate:    1.1199E-006 rev/day^2
Epoch rev:           16143
Checksum:              370

Satellite: GOES 11
Catalog number: 26352
Epoch time:      103053.52359343
Element set:     35 
Inclination:        0.1489 deg
RA of node:       103.2366 deg
Eccentricity:    0.0003355
Arg of perigee:   225.5606 deg
Mean anomaly:     258.1973 deg
Mean motion:    1.00265981 rev/day
Decay rate:   -4.1000E-007 rev/day^2
Epoch rev:            1027
Checksum:              257

Satellite: EUTELSAT W4
Catalog number: 26369
Epoch time:      103056.75615172
Element set:     355 
Inclination:        0.0374 deg
RA of node:        10.0316 deg
Eccentricity:    0.0003506
Arg of perigee:   335.6383 deg
Mean anomaly:     117.8134 deg
Mean motion:    1.00274569 rev/day
Decay rate:    1.4099Epoch rev:            1012
Checksum:              262

Satellite: FENGYUN 2B
Catalog number: 26382
Epoch time:      103055.65208626
Element set:     801 
Inclination:        0.5557 deg
RA of node:       287.6438 deg
Eccentricity:    0.0001691
Arg of perigee:   212.7042 deg
Mean anomaly:     352.9698 deg
Mean motion:    1.00272397 rev/day
Decay rate:   -3.4199E-006 rev/day^2
Epoch rev:             977
Checksum:              313

Satellite: EUTELSAT W1
Catalog number: 26487
Epoch time:      103054.87867468
Element set:     359 
Inclination:        0.0314 deg
RA of node:       296.9935 deg
Eccentricity:    0.0003801
Arg of perigee:   337.3757 deg
Mean anomaly:     205.2521 deg
Mean motion:    1.00271547 rev/day
Decay rate:    5.6999E-007 rev/day^2
Epoch rev:             907
Checksum:              323

Satellite: ASTRA 2B
Catalog number: 26494
Epoch time:      103049.00000000
Element set:     255 
Inclination:        0.0178 deg
RA of node:       354.5658 deg
Eccentricity:    0.0005000
Arg of perigee:   302.8402 deg
Mean anomaly:     238.2911 deg
Mean motion:    1.00276704 rev/day
Decay rate:    1.4600E-006 rev/day^2
Epoch rev:             891
Checksum:              228

Satellite: NOAA 16
Catalog number: 26536
Epoch time:      1Element set:     221 
Inclination:       98.9024 deg
RA of node:         4.8302 deg
Eccentricity:    0.0009821
Arg of perigee:   288.9630 deg
Mean anomaly:      71.0476 deg
Mean motion:   14.11908746 rev/day
Decay rate:    1.0400E-006 rev/day^2
Epoch rev:           12514
Checksum:              300

Satellite: SAUDISAT 1A
Catalog number: 26545
Epoch time:      103055.90180258
Element set:     417 
Inclination:       64.5602 deg
RA of node:        12.4572 deg
Eccentricity:    0.0051727
Arg of perigee:   237.7235 deg
Mean anomaly:     121.8833 deg
Mean motion:   14.78996996 rev/day
Decay rate:    6.1099E-006 rev/day^2
Epoch rev:           13016
Checksum:              321

Satellite: UNISAT
Catalog number: 26547
Epoch time:      103055.88489123
Element set:     436 
Inclination:       64.5591 deg
RA of node:        14.7188 deg
Eccentricity:    0.0058820
Arg of perigee:   239.7967 deg
Mean anomaly:     119.7303 deg
Mean motion:   14.79773616 rev/day
Decay rate:    1.2180E-005 rev/day^2
Epoch rev:           13012
Checksum:              325

Satellite: TIUNGSAT 1
Catalog number: 26548
Epoch time:      103056.92720889
Element set:     420 
Inclination:       64.5587 deg
RA of node:         2.1141 deg
Eccentricity:    0.0044894
Arg of perigee:   236.9522 deg
Mean anomaly:    Mean motion:   14.81292785 rev/day
Decay rate:    7.5399E-006 rev/day^2
Epoch rev:           13045
Checksum:              419

Satellite: SAUDISAT 1B
Catalog number: 26549
Epoch time:      103056.88975527
Element set:     701 
Inclination:       64.5537 deg
RA of node:        13.5739 deg
Eccentricity:    0.0056042
Arg of perigee:   237.7091 deg
Mean anomaly:     121.8550 deg
Mean motion:   14.77935919 rev/day
Decay rate:    6.3699E-006 rev/day^2
Epoch rev:           13022
Checksum:              434

Satellite: AMSAT OSCAR 40
Catalog number: 26609
Epoch time:      103050.21683058
Element set:     312 
Inclination:        8.1RA of node:        63.9362 deg
Eccentricity:    0.7942557
Arg of perigee:   145.4197 deg
Mean anomaly:     310.7583 deg
Mean motion:    1.25596576 rev/day
Decay rate:   -1.7099E-006 rev/day^2
Epoch rev:            1059
Checksum:              389

Satellite: GOES 12
Catalog number: 26871
Epoch time:      103056.19351274
Element set:     837 
Inclination:        0.3141 deg
RA of node:       276.2654 deg
Eccentricity:    0.0002356
Arg of perigee:    10.9525 deg
Mean anomaly:     204.7249 deg
Mean motion:    1.00359819 rev/day
Decay rate:   -1.9199E-006 rev/day^2
Epoch rev:             590
Checksum:              293

Satellite: PCSAT
Catalog number: 26931
Epoch time:      103057.22345732
Element set:     411 
Inclination:       67.0474 deg
RA of node:       235.9078 deg
Eccentricity:    0.0005101
Arg of perigee:   268.4191 deg
Mean anomaly:      91.6325 deg
Mean motion:   14.29118376 rev/day
Decay rate:    5.8000E-007 rev/day^2
Epoch rev:            7344
Checksum:              286

Satellite: SAPPHIRE
Catalog number: 26932
Epoch time:      103056.57077197
Element set:     405 
Inclination:       67.0540 deg
RA of node:       237.2909 deg
Eccentricity:    0.0004652
Arg of perigee:   244.0726 deg
Mean anomaly:     115.9895 deg
Mean motion:   14.29296443 rev/day
Decay rate:    3.0999E-0Epoch rev:            7337
Checksum:              439

Satellite: ENVISAT
Catalog number: 27386
Epoch time:      103056.88039319
Element set:     960 
Inclination:       98.5465 deg
RA of node:       125.3201 deg
Eccentricity:    0.0000996
Arg of perigee:    92.5725 deg
Mean anomaly:     267.5571 deg
Mean motion:   14.32248361 rev/day
Decay rate:    2.0999E-007 rev/day^2
Epoch rev:            5179
Checksum:              336

Satellite: IDEFIX/ARIANE 
Catalog number: 27422
Epoch time:      103056.53927838
Element set:     241 
Inclination:       98.6940 deg
RA of node:       135.7085 deg
Eccentricity:    0.0013253
Arg of perigee:   127.2416 deg
Mean anomaly:     232.9976 deg
Mean motion:   14.27973617 rev/day
Decay rate:    1.6799E-006 rev/day^2
Epoch rev:            4245
Checksum:              337

